Weather History for Staunton, VA

Change the Weather History Date:

Sunday, February 10, 2013

  Actual Average Record
Temperature  
Mean Temperature 31 °F -  
Max Temperature 46 °F 47 °F 69 °F (2009)
Min Temperature 16 °F 26 °F 10 °F (2007)
Degree Days  
Heating Degree Days 34    
Moisture  
Dew Point 16 °F    
Average Humidity 54    
Maximum Humidity 86    
Minimum Humidity 28    
Precipitation  
Precipitation 0.01 in - - ()
Sea Level Pressure  
Sea Level Pressure 30.33 in    
Wind  
Wind Speed 3 mph (South)    
Max Wind Speed 12 mph    
Max Gust Speed 20 mph    
Visibility 10 miles    
Events Rain    
Averages and records for this station are not official NWS values.
T = Trace of Precipitation, MM = Missing Value Source: NWS Daily Summary

Daily Weather History Graph

Daily Weather History Graph

Search for Another Location

Airport:

Trip Planner

Search our weather history database for the weather conditions in past years. The results will help you decide how hot, cold, wet, or windy it might be!

Date:

Astronomy

Feb. 10, 2013 Rise Set
Actual Time 7:11 AM EST 5:48 PM EST
Civil Twilight 6:44 AM EST 6:16 PM EST
Nautical Twilight 6:12 AM EST 6:47 PM EST
Astronomical Twilight 5:42 AM EST 7:17 PM EST
Moon 7:01 AM EST (2/10) 6:36 PM EST (2/10)
Length of Visible Light 11h 31m
Length of Day
10h 37m
New Moon, 0% of the Moon is Illuminated
Feb 10
New Moon
Feb 17
First Quarter
Feb 25
Full
Mar 4
Last Quarter
Mar 11
New

Hourly Weather History & Observations

Time (EST) Temp. Windchill Dew Point Humidity Pressure Visibility Wind Dir Wind Speed Gust Speed Precip Events Conditions
12:15 AM 21.2 °F - 14.4 °F 75% 30.37 in 10.0 mi Calm Calm - N/A   Clear
12:35 AM 21.2 °F - 15.1 °F 77% 30.37 in 10.0 mi Calm Calm - N/A   Clear
12:55 AM 21.2 °F - 15.4 °F 78% 30.37 in 10.0 mi Calm Calm - N/A   Clear
1:15 AM 19.6 °F - 13.8 °F 78% 30.37 in 10.0 mi Calm Calm - N/A   Clear
1:35 AM 20.7 °F - 15.6 °F 81% 30.38 in 10.0 mi Calm Calm - N/A   Clear
1:55 AM 19.6 °F - 15.3 °F 83% 30.38 in 10.0 mi Calm Calm - N/A   Clear
2:15 AM 20.7 °F - 15.1 °F 79% 30.38 in 10.0 mi Calm Calm - N/A   Clear
2:35 AM 19.4 °F - 14.0 °F 80% 30.38 in 10.0 mi Calm Calm - N/A   Clear
2:55 AM 19.4 °F - 14.5 °F 81% 30.37 in 10.0 mi Calm Calm - N/A   Clear
3:35 AM 19.4 °F - 14.7 °F 82% 30.37 in 10.0 mi Calm Calm - N/A   Clear
3:55 AM 18.0 °F - 13.5 °F 83% 30.37 in 10.0 mi Calm Calm - N/A   Clear
4:15 AM 17.6 °F - 13.5 °F 84% 30.37 in 10.0 mi Calm Calm - N/A   Clear
4:35 AM 19.4 °F - 15.4 °F 85% 30.38 in 10.0 mi Calm Calm - N/A   Clear
4:55 AM 16.7 °F - 13.1 °F 86% 30.38 in 10.0 mi Calm Calm - N/A   Clear
5:15 AM 17.4 °F - 12.6 °F 81% 30.38 in 10.0 mi Calm Calm - N/A   Clear
5:35 AM 16.7 °F - 13.1 °F 86% 30.39 in 10.0 mi Calm Calm - N/A   Clear
5:55 AM 17.6 °F - 13.8 °F 85% 30.40 in 10.0 mi Calm Calm - N/A   Clear
6:15 AM 18.3 °F - 14.4 °F 85% 30.40 in 10.0 mi Calm Calm - N/A   Clear
6:35 AM 18.5 °F - 14.5 °F 85% 30.40 in 10.0 mi Calm Calm - N/A   Clear
6:55 AM 18.5 °F - 14.4 °F 84% 30.40 in 10.0 mi Calm Calm - N/A   Clear
7:15 AM 17.6 °F - 14.0 °F 86% 30.42 in 10.0 mi Calm Calm - N/A   Clear
7:35 AM 18.5 °F - 14.2 °F 83% 30.42 in 10.0 mi Calm Calm - N/A   Clear
7:55 AM 21.2 °F - 16.5 °F 82% 30.43 in 10.0 mi Calm Calm - N/A   Clear
8:15 AM 21.7 °F - 16.5 °F 80% 30.43 in 10.0 mi Calm Calm - N/A   Clear
8:35 AM 24.3 °F - 19.2 °F 81% 30.43 in 10.0 mi Calm Calm - N/A   Clear
8:55 AM 27.9 °F 24.0 °F 20.3 °F 73% 30.43 in 10.0 mi SW 3.5 mph - N/A   Clear
9:15 AM 30.0 °F 26.5 °F 21.9 °F 72% 30.43 in 10.0 mi WSW 3.5 mph - N/A   Clear
9:35 AM 33.6 °F 27.5 °F 19.6 °F 56% 30.43 in 10.0 mi South 6.9 mph - N/A   Clear
9:55 AM 35.6 °F 29.9 °F 17.8 °F 48% 30.42 in 10.0 mi South 6.9 mph - N/A   Clear
10:15 AM 36.5 °F 30.3 °F 14.4 °F 40% 30.42 in 10.0 mi SSW 8.1 mph - N/A   Clear
10:35 AM 37.4 °F 32.8 °F 14.4 °F 39% 30.41 in 10.0 mi South 5.8 mph - N/A   Clear
10:55 AM 38.3 °F 33.2 °F 12.6 °F 35% 30.40 in 10.0 mi South 6.9 mph - N/A   Clear
11:15 AM 39.4 °F 32.7 °F 11.8 °F 32% 30.40 in 10.0 mi SSW 10.4 mph - N/A   Clear
11:35 AM 40.6 °F 34.8 °F 12.6 °F 32% 30.39 in 10.0 mi SSW 9.2 mph 16.1 mph N/A   Clear
11:55 AM 40.5 °F 34.1 °F 12.9 °F 33% 30.38 in 10.0 mi South 10.4 mph - N/A   Clear
12:15 PM 41.5 °F 35.4 °F 13.5 °F 32% 30.38 in 10.0 mi South 10.4 mph - N/A   Clear
12:35 PM 41.9 °F 36.3 °F 14.0 °F 32% 30.36 in 10.0 mi South 9.2 mph - N/A   Clear
12:55 PM 42.1 °F 36.6 °F 14.0 °F 32% 30.35 in 10.0 mi SSE 9.2 mph - N/A   Scattered Clouds
1:15 PM 43.0 °F 37.2 °F 13.6 °F 30% 30.33 in 10.0 mi SSE 10.4 mph - N/A   Scattered Clouds
1:35 PM 46.0 °F 40.6 °F 14.5 °F 28% 30.32 in 10.0 mi South 11.5 mph 16.1 mph N/A   Clear
1:55 PM 45.1 °F 40.8 °F 14.4 °F 29% 30.30 in 10.0 mi South 8.1 mph - N/A   Clear
2:15 PM 45.5 °F 41.3 °F 13.8 °F 28% 30.30 in 10.0 mi South 8.1 mph - N/A   Clear
2:35 PM 45.7 °F 41.0 °F 14.5 °F 29% 30.29 in 10.0 mi South 9.2 mph - N/A   Clear
2:55 PM 45.7 °F 41.5 °F 13.8 °F 28% 30.29 in 10.0 mi South 8.1 mph - N/A   Clear
3:15 PM 45.9 °F 40.8 °F 14.5 °F 28% 30.28 in 10.0 mi SSE 10.4 mph - N/A   Clear
3:35 PM 45.3 °F 40.6 °F 14.7 °F 29% 30.27 in 10.0 mi South 9.2 mph - N/A   Clear
3:55 PM 44.2 °F 38.8 °F 14.0 °F 30% 30.28 in 10.0 mi SSE 10.4 mph 17.3 mph N/A   Clear
4:15 PM 43.9 °F 39.3 °F 14.7 °F 31% 30.27 in 10.0 mi South 8.1 mph - N/A   Clear
4:35 PM 43.7 °F 38.1 °F 14.9 °F 31% 30.26 in 10.0 mi South 10.4 mph 16.1 mph N/A   Clear
4:55 PM 43.5 °F 37.5 °F 14.9 °F 32% 30.27 in 10.0 mi South 11.5 mph 19.6 mph N/A   Clear
5:15 PM 42.8 °F 37.0 °F 15.4 °F 33% 30.27 in 10.0 mi South 10.4 mph - N/A   Clear
5:35 PM 42.3 °F 37.3 °F 15.6 °F 34% 30.27 in 10.0 mi SSE 8.1 mph - N/A   Clear
5:55 PM 41.9 °F 36.9 °F 15.8 °F 35% 30.27 in 10.0 mi South 8.1 mph - N/A   Clear
6:15 PM 41.9 °F 37.5 °F 16.0 °F 35% 30.26 in 10.0 mi South 6.9 mph - N/A   Scattered Clouds
6:35 PM 42.1 °F 37.7 °F 16.2 °F 35% 30.26 in 10.0 mi South 6.9 mph - N/A   Scattered Clouds
6:55 PM 42.3 °F 37.3 °F 16.2 °F 35% 30.26 in 10.0 mi South 8.1 mph - N/A   Scattered Clouds
7:15 PM 41.9 °F 37.5 °F 16.3 °F 36% 30.27 in 10.0 mi South 6.9 mph - N/A   Clear
7:35 PM 42.1 °F 37.1 °F 16.5 °F 36% 30.27 in 10.0 mi South 8.1 mph - N/A   Scattered Clouds
7:55 PM 41.9 °F 38.2 °F 16.7 °F 36% 30.27 in 10.0 mi South 5.8 mph - N/A   Scattered Clouds
8:15 PM 41.9 °F 36.9 °F 16.7 °F 36% 30.26 in 10.0 mi South 8.1 mph - N/A   Scattered Clouds
8:35 PM 41.9 °F 36.9 °F 17.4 °F 37% 30.25 in 10.0 mi South 8.1 mph - N/A   Clear
8:55 PM 42.1 °F 36.6 °F 17.2 °F 37% 30.25 in 10.0 mi South 9.2 mph - N/A   Clear
9:15 PM 42.1 °F 37.1 °F 17.6 °F 37% 30.24 in 10.0 mi South 8.1 mph - N/A   Clear
9:35 PM 42.8 °F 38.0 °F 17.2 °F 36% 30.22 in 10.0 mi South 8.1 mph - N/A   Clear
9:55 PM 42.8 °F 38.0 °F 17.6 °F 36% 30.22 in 10.0 mi South 8.1 mph - N/A   Scattered Clouds
10:15 PM 43.3 °F 39.2 °F 17.6 °F 36% 30.22 in 10.0 mi South 6.9 mph - N/A   Mostly Cloudy
10:35 PM 43.5 °F 38.9 °F 18.3 °F 36% 30.22 in 10.0 mi South 8.1 mph - N/A   Overcast
10:55 PM 41.5 °F 37.1 °F 24.3 °F 50% 30.21 in 10.0 mi South 6.9 mph - N/A Rain Rain
11:15 PM 39.4 °F 37.2 °F 27.1 °F 62% 30.21 in 10.0 mi SSW 3.5 mph - 0.01 in Rain Light Rain
11:35 PM 39.0 °F 36.8 °F 28.8 °F 67% 30.20 in 10.0 mi South 3.5 mph - 0.01 in Rain Light Rain
11:55 PM 39.9 °F 35.1 °F 27.7 °F 62% 30.19 in 10.0 mi SSW 6.9 mph - 0.01 in   Overcast